Location: Newark
(52.2090°N, 4.1550°W)
Time: 18:16:12
(UTC+00:00)

Vanguard 2 Rocket - All Passes

Search period start: 17 October 2019 00:00
Search period end: 27 October 2019 00:00
Orbit: 554 x 3327 km, 32.9° (Epoch: 15 October)

Date Brightness Start Highest point End Pass type
(mag) Time Alt. Az. Time Alt. Az. Time Alt. Az.
17 Oct - 08:53:28 10° SSW 09:07:19 25° SSE 09:20:50 10° ESE daylight
17 Oct - 11:04:59 10° SW 11:22:12 37° S 11:36:43 10° ESE daylight
17 Oct - 13:20:34 10° WSW 13:37:15 37° SSW 13:49:32 10° SE daylight
17 Oct - 15:39:07 10° WSW 15:50:37 22° SW 15:59:12 10° S daylight
18 Oct - 07:55:26 10° S 08:06:44 19° SE 08:18:23 10° ESE daylight
18 Oct - 10:04:36 10° SW 10:21:04 35° SSE 10:36:15 10° ESE daylight
18 Oct - 12:18:52 10° WSW 12:36:23 39° S 12:50:11 10° ESE daylight
18 Oct - 14:36:13 10° WSW 14:50:41 29° SSW 15:01:17 10° SSE daylight
18 Oct - 17:00:16 10° WSW 17:02:37 11° SW 17:04:49 10° SW daylight
19 Oct - 06:59:32 10° SSE 07:06:29 13° SE 07:13:47 10° ESE daylight
19 Oct - 09:04:54 10° SSW 09:20:03 30° SSE 09:35:12 10° ESE daylight
19 Oct - 11:17:41 10° SW 11:35:16 40° S 11:50:21 10° ESE daylight
19 Oct - 13:33:53 10° WSW 13:50:16 35° SSW 14:02:41 10° SE daylight
19 Oct - 15:53:38 10° WSW 16:03:14 18° SW 16:10:54 10° S daylight
20 Oct - 08:06:02 10° S 08:19:16 25° SE 08:33:22 10° E daylight
20 Oct - 10:17:03 10° SW 10:34:03 38° SSE 10:50:01 10° ESE daylight
20 Oct - 12:32:02 10° WSW 12:49:27 39° SSW 13:03:29 10° SE daylight
20 Oct - 14:50:05 10° W 15:03:25 25° SW 15:13:41 10° SSE daylight
21 Oct - 07:08:19 10° S 07:18:51 19° SE 07:30:27 10° ESE daylight
21 Oct - 09:17:03 10° SW 09:32:52 35° SSE 09:49:07 10° ESE daylight
21 Oct - 11:30:42 10° WSW 11:48:20 41° S 12:03:46 10° ESE daylight
21 Oct - 13:47:26 10° WSW 14:03:08 31° SSW 14:15:27 10° SSE daylight
21 Oct - 16:09:40 10° WSW 16:15:38 13° SW 16:20:53 10° SSW daylight
22 Oct - 06:12:57 10° SSE 06:18:50 12° SE 06:25:10 10° ESE visible
22 Oct - 08:17:44 10° SSW 08:31:55 30° SSE 08:47:36 10° E daylight
22 Oct - 10:29:54 10° SW 10:47:03 41° S 11:03:32 10° ESE daylight
22 Oct - 12:45:25 10° WSW 13:02:24 36° SSW 13:16:30 10° SE daylight
22 Oct - 15:04:32 10° W 15:15:57 20° SW 15:25:18 10° S daylight
23 Oct - 07:19:13 10° S 07:31:19 25° SE 07:45:19 10° E daylight
23 Oct - 09:29:41 10° SW 09:45:46 39° SSE 10:02:45 10° ESE daylight
23 Oct - 11:43:57 10° WSW 12:01:21 40° S 12:16:57 10° SE daylight
23 Oct - 14:01:20 10° W 14:15:49 26° SW 14:27:42 10° SSE daylight
24 Oct - 06:21:52 10° S 06:31:08 18° SE 06:41:55 10° ESE visible
24 Oct - 08:30:04 10° SW 08:44:41 35° SSE 09:01:24 10° ESE daylight
24 Oct - 10:43:02 10° WSW 11:00:04 41° S 11:16:50 10° ESE daylight
24 Oct - 12:59:03 10° WSW 13:15:14 32° SSW 13:29:07 10° SSE daylight
24 Oct - 15:20:13 10° WSW 15:28:18 14° SW 15:35:27 10° SSW daylight
25 Oct - 05:27:30 10° SE 05:31:23 11° SE 05:35:33 10° ESE visible
25 Oct - 07:31:07 10° SSW 07:43:55 30° SSE 07:59:26 10° E daylight
25 Oct - 09:42:40 10° SW 09:58:45 41° S 10:16:09 10° ESE daylight
25 Oct - 11:57:26 10° WSW 12:14:17 37° SSW 12:29:48 10° SE daylight
25 Oct - 14:15:48 10° W 14:28:20 21° SW 14:39:10 10° S daylight
26 Oct - 06:32:58 10° S 06:43:35 23° SE 06:56:44 10° E daylight
26 Oct - 08:42:52 10° SW 08:57:35 38° SSE 09:14:55 10° ESE daylight
26 Oct - 10:56:25 10° WSW 11:13:05 40° S 11:29:52 10° SE daylight
26 Oct - 13:13:01 10° W 13:27:55 27° SSW 13:41:11 10° SSE daylight
